Station CHAV3 - 9751639 - Charlotte Amalie, VI Image indicating link to RSS feed of recent meteorological observations for station CHAV3


Conditions at CHAV3 as of
(10:54 am AST)
1454 GMT on 07/23/2024:
     

Click on the graph icon in the table below to see a time series plot of the last five days of that observation.

5-day plot - Wind Direction Wind Direction (WDIR): SE ( 130 deg true )
5-day plot - Wind Speed Wind Speed (WSPD): 8.0 kts
5-day plot - Wind Gust Wind Gust (GST): 15.0 kts
5-day plot - Atmospheric Pressure Atmospheric Pressure (PRES):30.08 in
5-day plot - Air Temperature Air Temperature (ATMP): 87.6 °F
5-day plot - Water Temperature Water Temperature (WTMP): 86.4 °F
5-day plot - Wind Speed at 10 Meters Wind Speed at 10 meters (WSPD10M): 7.8 kts
5-day plot - Wind Speed at 20 Meters Wind Speed at 20 meters (WSPD20M): 9.7 kts
5-day plot -  Wind Speed, Wind Gust and Atmospheric Pressure Combined plot of Wind Speed, Gust, and Air Pressure
NOS Water Level Observation Network Water Level
Previous observations
TIME
(AST)
5-day plot - Wind Direction
WDIR
 
5-day plot - Wind Speed
WSPD
kts
5-day plot - Wind Gust
GST
kts
5-day plot - Wave Height
WVHT
ft
5-day plot - Dominant Wave Period
DPD
sec
5-day plot - Average Wave Period
APD
sec
5-day plot - Mean Wave Direction
MWD
 
5-day plot - Atmospheric Pressure
PRES
in
5-day plot - Pressure Tendency
PTDY
in
5-day plot - Air Temperature
ATMP
°F
5-day plot - Water Temperature
WTMP
°F
5-day plot - Dew Point
DEWP
°F
5-day plot - Salinity
SAL
psu
5-day plot - Visibility
VIS
nmi
5-day plot - Tide (above MLLW)
TIDE
ft
2024-07-23 10:48 am SE 11.1 14.0----30.08- 87.3 86.4----
2024-07-23 10:42 amESE 8.0 13.0----30.08- 87.4 86.4----
2024-07-23 10:36 am SE 8.9 12.0----30.08- 87.1 86.4----
2024-07-23 10:30 am SE 8.0 12.0----30.08- 87.4 86.4----
2024-07-23 10:24 am E 2.9 13.0----30.08- 88.0 86.4----
2024-07-23 10:18 am E 5.1 14.0----30.07- 87.4 86.4----
2024-07-23 10:12 amESE 6.0 14.0----30.07- 87.4 86.4----
2024-07-23 10:06 amESE 7.0 14.0----30.07- 87.3 86.4----
2024-07-23 10:00 amESE 7.0 14.0----30.07+0.04 87.1 86.4----
2024-07-23 09:54 am SE 8.0 12.0----30.07- 87.4 86.4----
2024-07-23 09:48 am SE 5.1 8.9----30.07- 87.8 86.4----
2024-07-23 09:42 amESE 4.1 8.0----30.07- 87.6 86.4----
2024-07-23 09:36 am E 7.0 11.1----30.06- 87.3 86.4----
2024-07-23 09:30 amESE 5.1 8.0----30.06- 87.6 86.4----
2024-07-23 09:24 amESE 6.0 8.9----30.06- 87.3 86.4----
2024-07-23 09:18 amESE 7.0 11.1----30.06- 86.7 86.4----
2024-07-23 09:12 amESE 5.1 12.0----30.06- 87.4 86.4----
2024-07-23 09:06 am E 4.1 9.9----30.06- 87.6 86.4----
2024-07-23 09:00 am E 2.9 8.9----30.06+0.05 87.4 86.4----
2024-07-23 08:54 amESE 5.1 8.9----30.06- 87.1 86.4----
2024-07-23 08:48 amESE 5.1 9.9----30.06- 86.2 86.4----
2024-07-23 08:42 amESE 5.1 8.0----30.06- 86.4 86.4----
2024-07-23 08:36 am E 5.1 8.9----30.05- 86.2 86.4----
2024-07-23 08:30 am E 5.1 9.9----30.05- 86.2 86.4----
2024-07-23 08:24 am E 4.1 14.0----30.05- 86.5 86.4----
2024-07-23 08:18 amENE 7.0 12.0----30.04- 86.7 86.4----
2024-07-23 08:12 am E 5.1 15.0----30.04- 86.2 86.4----
2024-07-23 08:06 amENE 9.9 13.0----30.04- 85.8 86.4----
2024-07-23 08:00 amENE 6.0 9.9----30.04+0.04 86.4 86.4----
2024-07-23 07:54 am E 4.1 11.1----30.04- 86.2 86.4----
2024-07-23 07:48 am E 5.1 12.0----30.04- 86.0 86.4----
2024-07-23 07:42 am E 2.9 8.9----30.04- 85.8 86.4----
2024-07-23 07:36 am E 6.0 9.9----30.04- 85.6 86.4----
2024-07-23 07:30 am E 5.1 7.0----30.04- 85.8 86.4----
2024-07-23 07:24 amENE 4.1 6.0----30.03- 85.8 86.4----
2024-07-23 07:18 am E 2.9 6.0----30.03- 85.5 86.4----
2024-07-23 07:12 amESE 1.9 2.9----30.03- 85.8 86.4----
2024-07-23 07:06 am- 0.0 2.9----30.03- 86.7 86.4----
2024-07-23 07:00 am E 1.9 2.9----30.03+0.03 86.0 86.4----
2024-07-23 06:54 am- 0.0 2.9----30.03- 85.5 86.4----
2024-07-23 06:48 amESE 1.9 2.9----30.03- 84.4 86.4----
2024-07-23 06:42 amESE 2.9 11.1----30.03- 83.8 86.4----
2024-07-23 06:36 amESE 4.1 6.0----30.03- 83.3 86.4----
2024-07-23 06:30 am E 2.9 4.1----30.02- 82.9 86.4----
2024-07-23 06:24 am E 2.9 6.0----30.02- 82.2 86.4----
2024-07-23 06:18 amENE 4.1 5.1----30.02- 82.2 86.4----
2024-07-23 06:12 am NE 2.9 4.1----30.01- 82.4 86.4----
2024-07-23 06:06 amESE 4.1 6.0----30.01- 82.2 86.4----
2024-07-23 06:00 amESE 2.9 5.1----30.01+0.01 82.0 86.4----
2024-07-23 05:54 am E 2.9 5.1----30.01- 81.9 86.4----
2024-07-23 05:48 amENE 1.9 2.9----30.01- 82.2 86.4----
2024-07-23 05:42 amESE 2.9 6.0----30.01- 82.4 86.4----
2024-07-23 05:36 amENE 2.9 4.1----30.01- 82.0 86.4----
2024-07-23 05:30 amENE 2.9 4.1----30.01- 82.0 86.4----
2024-07-23 05:24 am E 2.9 4.1----30.01- 82.0 86.4----
2024-07-23 05:18 am E 4.1 5.1----30.01- 82.0 86.4----
2024-07-23 05:12 am E 2.9 4.1----30.01- 81.9 86.4----
2024-07-23 05:06 am E 1.9 4.1----30.01- 81.9 86.4----
2024-07-23 05:00 am E 2.9 4.1----30.00+0.00 82.0 86.4----
2024-07-23 04:54 amESE 1.9 5.1----30.00- 81.9 86.4----
2024-07-23 04:48 amENE 4.1 6.0----30.00- 82.0 86.4----
2024-07-23 04:42 amENE 2.9 5.1----30.00- 82.0 86.4----
2024-07-23 04:36 amENE 1.9 4.1----30.00- 82.0 86.4----
2024-07-23 04:30 am E 1.9 4.1----30.00- 82.4 86.4----
2024-07-23 04:24 am E 1.9 4.1----30.00- 82.2 86.4----
2024-07-23 04:18 amESE 1.9 5.1----30.00- 82.2 86.4----
2024-07-23 04:12 amESE 2.9 6.0----30.00- 82.2 86.4----
2024-07-23 04:06 am E 1.9 4.1----30.00- 82.2 86.4----
2024-07-23 04:00 amESE 1.9 4.1----30.00-0.02 82.2 86.4----
2024-07-23 03:54 am E 1.9 2.9----30.00- 82.4 86.4----
2024-07-23 03:48 amESE 2.9 5.1----30.00- 82.6 86.4----
2024-07-23 03:42 amENE 2.9 5.1----30.00- 82.4 86.4----
2024-07-23 03:36 amESE 2.9 4.1----30.00- 82.2 86.4----
2024-07-23 03:30 am E 2.9 4.1----30.00- 82.2 86.4----
2024-07-23 03:24 am E 1.9 4.1----30.00- 82.4 86.4----
2024-07-23 03:18 amENE 4.1 8.0----30.00- 82.6 86.4----
2024-07-23 03:12 am E 1.9 4.1----30.00- 82.6 86.4----
2024-07-23 03:06 amENE 1.9 4.1----30.00- 82.6 86.4----
2024-07-23 03:00 am E 1.9 5.1----30.00-0.04 82.8 86.4----
2024-07-23 02:54 am SE 4.1 6.0----30.00- 82.9 86.4----
2024-07-23 02:48 am E 1.9 8.0----30.00- 82.9 86.4----
2024-07-23 02:42 amESE 5.1 7.0----30.00- 82.8 86.4----
2024-07-23 02:36 amESE 6.0 8.0----30.00- 82.8 86.4----
2024-07-23 02:30 am SE 2.9 5.1----30.00- 82.6 86.4----
2024-07-23 02:24 amESE 2.9 5.1----30.00- 82.6 86.4----
2024-07-23 02:18 am E 2.9 6.0----30.00- 82.8 86.4----
2024-07-23 02:12 amENE 5.1 8.9----30.00- 82.8 86.4----
2024-07-23 02:06 am E 2.9 5.1----30.01- 82.8 86.4----
2024-07-23 02:00 amESE 2.9 6.0----30.01-0.04 82.9 86.4----
2024-07-23 01:54 amESE 5.1 8.9----30.01- 82.9 86.4----
2024-07-23 01:48 amESE 2.9 5.1----30.01- 82.6 86.4----
2024-07-23 01:42 am E 1.9 5.1----30.01- 82.8 86.4----
2024-07-23 01:36 amESE 4.1 5.1----30.01- 82.9 86.4----
2024-07-23 01:30 amESE 1.9 5.1----30.01- 82.9 86.4----
2024-07-23 01:24 amESE 4.1 5.1----30.01- 83.1 86.5----
2024-07-23 01:18 amESE 2.9 7.0----30.02- 83.1 86.5----
2024-07-23 01:12 am E 4.1 8.9----30.02- 83.3 86.5----
2024-07-23 01:06 amESE 6.0 8.0----30.02- 83.3 86.5----
2024-07-23 01:00 am SE 6.0 8.9----30.02-0.02 83.3 86.5----
2024-07-23 12:54 amESE 5.1 8.9----30.02- 83.5 86.5----
2024-07-23 12:48 amESE 6.0 8.0----30.02- 83.5 86.5----
2024-07-23 12:42 amESE 5.1 9.9----30.03- 83.5 86.5----
2024-07-23 12:36 am E 6.0 11.1----30.03- 83.5 86.5----
2024-07-23 12:30 am E 8.0 12.0----30.03- 83.7 86.5----
2024-07-23 12:24 amESE 6.0 9.9----30.03- 83.7 86.5----
2024-07-23 12:18 amESE 2.9 6.0----30.03- 83.5 86.5----
2024-07-23 12:12 amESE 2.9 7.0----30.04- 83.5 86.5----
2024-07-23 12:06 am E 4.1 6.0----30.04- 83.7 86.5----
2024-07-23 12:00 amESE 5.1 8.9----30.04+0.01 83.7 86.5----
2024-07-22 11:54 pmESE 8.9 12.0----30.04- 83.8 86.5----
2024-07-22 11:48 pmESE 8.9 12.0----30.04- 83.8 86.5----
2024-07-22 11:42 pm SE 6.0 9.9----30.04- 83.7 86.5----
2024-07-22 11:36 pmESE 6.0 11.1----30.04- 83.7 86.5----
2024-07-22 11:30 pmESE 2.9 7.0----30.04- 83.7 86.5----
2024-07-22 11:24 pm SE 7.0 12.0----30.04- 83.8 86.5----
2024-07-22 11:18 pmESE 5.1 8.0----30.04- 83.7 86.5----
2024-07-22 11:12 pmESE 5.1 8.0----30.05- 83.5 86.5----
2024-07-22 11:06 pm E 2.9 5.1----30.05- 83.3 86.5----
2024-07-22 11:00 pmESE 2.9 5.1----30.05+0.04 83.5 86.5----
2024-07-22 10:54 pmESE 1.9 5.1----30.05- 83.5 86.5----
2024-07-22 10:48 pm E 4.1 6.0----30.05- 83.5 86.5----
2024-07-22 10:42 pmESE 6.0 8.0----30.05- 83.7 86.5----
2024-07-22 10:36 pm E 4.1 8.9----30.05- 83.7 86.5----
2024-07-22 10:30 pm E 4.1 7.0----30.04- 83.5 86.5----
2024-07-22 10:24 pm SE 5.1 7.0----30.04- 83.7 86.5----
2024-07-22 10:18 pm E 5.1 7.0----30.04- 83.5 86.5----
2024-07-22 10:12 pm E 4.1 6.0----30.04- 83.5 86.5----
2024-07-22 10:06 pm E 5.1 8.0----30.04- 83.5 86.5----
2024-07-22 10:00 pmENE 4.1 7.0----30.04+0.05 83.7 86.5----
2024-07-22 09:54 pmENE 4.1 6.0----30.04- 83.7 86.5----
2024-07-22 09:48 pmENE 5.1 8.0----30.04- 83.7 86.5----
2024-07-22 09:42 pm SE 2.9 6.0----30.04- 83.7 86.5----
2024-07-22 09:36 pmESE 2.9 5.1----30.03- 83.5 86.5----
2024-07-22 09:30 pm E 6.0 8.0----30.03- 83.5 86.5----
2024-07-22 09:24 pm E 2.9 6.0----30.03- 83.3 86.5----
2024-07-22 09:18 pmENE 5.1 8.0----30.03- 83.1 86.5----
2024-07-22 09:12 pm E 2.9 5.1----30.03- 82.8 86.5----
2024-07-22 09:06 pmESE 4.1 5.1----30.03- 82.8 86.5----
2024-07-22 09:00 pmESE 1.9 5.1----30.03+0.04 82.8 86.7----
2024-07-22 08:54 pm E 5.1 6.0----30.03- 82.8 86.7----
2024-07-22 08:48 pm E 2.9 5.1----30.03- 82.6 86.7----
2024-07-22 08:42 pm E 4.1 5.1----30.03- 82.8 86.7----
2024-07-22 08:36 pm E 4.1 6.0----30.02- 82.8 86.7----
2024-07-22 08:30 pm E 2.9 7.0----30.02- 82.8 86.7----
2024-07-22 08:24 pm E 1.9 5.1----30.02- 82.9 86.7----
2024-07-22 08:18 pm E 6.0 7.0----30.01- 82.9 86.7----
2024-07-22 08:12 pm E 2.9 7.0----30.01- 83.1 86.7----
2024-07-22 08:06 pm E 4.1 7.0----30.01- 83.5 86.7----
2024-07-22 08:00 pm E 5.1 7.0----30.01+0.04 83.5 86.7----
2024-07-22 07:54 pm E 5.1 7.0----30.01- 83.5 86.7----
2024-07-22 07:48 pm E 2.9 6.0----30.01-- 86.7----
2024-07-22 07:42 pmESE 4.1 7.0----30.00-- 86.7----
2024-07-22 07:36 pmENE 4.1 12.0----30.00-- 86.7----
2024-07-22 07:30 pm E 5.1 9.9----30.00-- 86.7----
2024-07-22 07:24 pmESE 4.1 6.0----30.00-- 86.7----
2024-07-22 07:18 pm E 4.1 6.0----30.00- 83.7 86.7----
2024-07-22 07:12 pmESE 2.9 7.0----30.00- 83.8 86.7----
2024-07-22 07:06 pmESE 5.1 8.9----29.99- 83.8 86.7----
2024-07-22 07:00 pmESE 6.0 8.9----29.99+0.01 84.0 86.7----
2024-07-22 06:54 pmESE 5.1 9.9----29.99- 84.0 86.7----
2024-07-22 06:48 pmESE 7.0 11.1----29.99- 84.0 86.7----
2024-07-22 06:42 pmESE 5.1 7.0----29.99- 84.0 86.7----
2024-07-22 06:36 pm SE 2.9 5.1----29.99- 84.2 86.7----
2024-07-22 06:30 pmESE 1.9 6.0----29.99- 84.4 86.7----
2024-07-22 06:24 pm E 2.9 8.9----29.99- 84.7 86.7----
2024-07-22 06:18 pmENE 6.0 8.9----29.99- 85.1 86.7----
2024-07-22 06:12 pmENE 6.0 11.1----29.99- 84.9 86.7----
2024-07-22 06:06 pm NE 8.9 12.0----29.99- 85.1 86.9----
2024-07-22 06:00 pmENE 8.0 13.0----29.98+0.00 84.9 86.7----
2024-07-22 05:54 pm NE 8.9 13.0----29.98- 85.3 86.7----
2024-07-22 05:48 pmENE 9.9 12.0----29.98- 85.1 86.7----
2024-07-22 05:42 pm NE 8.9 15.0----29.98- 85.5 86.7----
2024-07-22 05:36 pm NE 13.0 15.9----29.98- 85.6 86.9----
2024-07-22 05:30 pm-------29.98-- 86.7----
2024-07-22 05:24 pm-------29.97-- 86.7----
2024-07-22 05:18 pm NE 9.9 14.0----29.97- 86.4 86.7----
2024-07-22 05:12 pm NE 11.1 13.0----29.97- 86.5 86.7----
2024-07-22 05:06 pmENE 8.0 12.0----29.97- 86.4 86.7----
2024-07-22 05:00 pmENE 9.9 13.0----29.97-0.03- 86.9----
2024-07-22 04:54 pmENE 5.1 12.0----29.97-- 86.9----
2024-07-22 04:48 pm E 6.0 9.9----29.97- 86.9 86.9----
2024-07-22 04:42 pm E 4.1 8.9----29.97- 85.6 86.9----
2024-07-22 04:36 pm SE 7.0 8.9----29.97- 84.6 86.9----
2024-07-22 04:30 pm SE 6.0 14.0----29.97- 84.6 86.7----
2024-07-22 04:24 pm SE 13.0 18.1----29.97- 84.4 86.9----
2024-07-22 04:18 pmESE 7.0 12.0----29.98- 86.4 86.9----
2024-07-22 04:12 pmESE 5.1 11.1----29.98- 86.7 86.9----
2024-07-22 04:06 pm E 6.0 9.9----29.98- 88.0 86.9----
2024-07-22 04:00 pm E 6.0 12.0----29.98-0.04 88.2 86.7----
2024-07-22 03:54 pmESE 5.1 11.1----29.98- 87.8 86.7----
2024-07-22 03:48 pm E 5.1 11.1----29.98-- 86.7----
2024-07-22 03:42 pm SE 5.1 9.9----29.98-- 86.7----
2024-07-22 03:36 pm SE 6.0 9.9----29.98-- 86.7----
2024-07-22 03:30 pmESE 8.0 13.0----29.98- 85.6 86.7----
2024-07-22 03:24 pm SE 6.0 13.0----29.98- 86.0 86.7----
2024-07-22 03:18 pmESE 6.0 14.0----29.98- 86.4 86.7----
2024-07-22 03:12 pm NE 6.0 13.0----29.98- 86.9 86.7----
2024-07-22 03:06 pmENE 8.0 15.9----29.98- 86.7 86.7----
2024-07-22 03:00 pmENE 7.0 13.0----29.98-0.02 87.3 86.7----
2024-07-22 02:54 pmESE 5.1 12.0----29.99- 87.6 86.7----
2024-07-22 02:48 pmESE 7.0 14.0----29.99- 87.4 86.7----
2024-07-22 02:42 pm E 5.1 8.9----29.99- 86.7 86.7----
2024-07-22 02:36 pm NE 7.0 12.0----29.99- 85.8 86.7----
2024-07-22 02:30 pm NE 8.0 13.0----29.99- 86.2 86.7----
2024-07-22 02:24 pmENE 5.1 9.9----29.99- 86.0 86.7----
2024-07-22 02:18 pmENE 5.1 12.0----29.99- 85.6 86.7----
2024-07-22 02:12 pmENE 5.1 9.9----29.99- 84.9 86.5----
2024-07-22 02:06 pmENE 6.0 12.0----29.99- 84.9 86.7----
2024-07-22 02:00 pmENE 8.0 11.1----30.00-0.01 84.9 86.7----
2024-07-22 01:54 pmENE 5.1 11.1----29.99- 84.4 86.7----
2024-07-22 01:48 pmENE 8.9 13.0----30.00- 84.2 86.7----
2024-07-22 01:42 pmENE 9.9 15.9----30.00- 84.2 86.7----
2024-07-22 01:36 pm NE 12.0 19.0----30.00- 85.1 86.7----
2024-07-22 01:30 pm NE 13.0 18.1----30.00- 84.7 86.7----
2024-07-22 01:24 pm E 5.1 8.0----30.00- 83.3 86.7----
2024-07-22 01:18 pmENE 6.0 8.9----30.01- 82.6 86.5----
2024-07-22 01:12 pm E 8.0 9.9----30.01- 81.7 86.5----
2024-07-22 01:06 pmENE 7.0 13.0----30.01- 82.0 86.9----
2024-07-22 01:00 pmENE 9.9 15.9----30.01+0.01 82.8 86.9----
2024-07-22 12:54 pmENE 13.0 18.1----30.01- 82.9 86.7----
2024-07-22 12:48 pmENE 15.0 27.0----30.01- 84.2 86.9----
2024-07-22 12:42 pmESE 8.9 17.1----30.01- 87.4 86.9----
2024-07-22 12:36 pmESE 8.0 20.0----30.01- 87.3 87.1----
2024-07-22 12:30 pm SE 8.0 15.0----30.00- 86.9 86.7----
2024-07-22 12:24 pmESE 7.0 14.0----30.00- 86.7 86.7----
2024-07-22 12:18 pm SE 7.0 14.0----30.00- 86.7 86.9----
2024-07-22 12:12 pm SE 11.1 15.9----30.00- 86.4 86.9----
2024-07-22 12:06 pmSSE 11.1 15.0----30.00- 86.4 86.7----
2024-07-22 12:00 pm SE 8.0 15.0----30.00+0.01 86.2 86.9----
2024-07-22 11:54 am SE 8.9 15.0----30.00- 85.6 86.9----
2024-07-22 11:48 am SE 11.1 17.1----30.00- 85.8 86.9----
2024-07-22 11:42 amESE 8.0 15.9----30.00- 86.2 86.9----
2024-07-22 11:36 am SE 12.0 17.1----30.00- 86.2 86.7----
2024-07-22 11:30 am SE 9.9 17.1----30.01- 86.4 86.9----
2024-07-22 11:24 am SE 8.9 15.9----30.01- 86.4 86.9----
2024-07-22 11:18 am SE 7.0 15.9----30.01- 86.5 86.7----
2024-07-22 11:12 am SE 9.9 15.0----30.01- 86.5 86.7----
2024-07-22 11:06 am SE 8.9 18.1----30.01- 86.7 86.7----
2024-07-22 11:00 am SE 11.1 18.1----30.01+0.04 86.5 86.7----
2024-07-22 10:54 am SE 8.9 18.1----30.01- 86.7 86.5----